Weather History for Sanford, FL

Change the Weather History Date:

Sunday, June 16, 2013

  Actual Average Record
Temperature  
Mean Temperature 82 °F -  
Max Temperature 88 °F 90 °F 99 °F (1964)
Min Temperature 77 °F 69 °F 63 °F (1972)
Cooling Degree Days 17    
Growing Degree Days 32 (Base 50)    
Moisture  
Dew Point 74 °F    
Average Humidity 81    
Maximum Humidity 94    
Minimum Humidity 65    
Precipitation  
Precipitation 0.69 in - - ()
Sea Level Pressure  
Sea Level Pressure 30.08 in    
Wind  
Wind Speed 7 mph (East)    
Max Wind Speed 14 mph    
Max Gust Speed 22 mph    
Visibility 9 miles    
Events Fog , Rain    
Averages and records for this station are not official NWS values.
T = Trace of Precipitation, MM = Missing Value Source: NWS Daily Summary

Daily Weather History Graph

Daily Weather History Graph

Search for Another Location

Airport:

Trip Planner

Search our weather history database for the weather conditions in past years. The results will help you decide how hot, cold, wet, or windy it might be!

Date:

Astronomy

Jun. 16, 2013 Rise Set
Actual Time 6:26 AM EDT 8:25 PM EDT
Civil Twilight 5:59 AM EDT 8:52 PM EDT
Nautical Twilight 5:26 AM EDT 9:24 PM EDT
Astronomical Twilight 4:52 AM EDT 9:59 PM EDT
Moon 1:27 PM EDT (6/16) 12:59 AM EDT (6/16)
Length of Visible Light 14h 52m
Length of Day
13h 58m
Waxing Crescent, 49% of the Moon is Illuminated
Jun 16
Waxing Crescent
Jun 16
First Quarter
Jun 23
Full
Jun 30
Last Quarter
Jul 8
New

Hourly Weather History & Observations

Time (EDT) Temp. Heat Index Dew Point Humidity Pressure Visibility Wind Dir Wind Speed Gust Speed Precip Events Conditions
12:53 AM 78.1 °F - 71.1 °F 79% 30.09 in 10.0 mi ESE 5.8 mph - N/A   Overcast
1:53 AM 78.1 °F - 70.0 °F 76% 30.09 in 10.0 mi ESE 8.1 mph - N/A   Overcast
2:53 AM 78.1 °F - 71.1 °F 79% 30.07 in 10.0 mi ESE 8.1 mph - N/A   Overcast
3:53 AM 78.1 °F - 71.1 °F 79% 30.06 in 10.0 mi ESE 6.9 mph - N/A   Overcast
4:53 AM 77.0 °F - 72.0 °F 84% 30.07 in 10.0 mi ESE 4.6 mph - N/A   Overcast
5:43 AM 77.0 °F - 71.6 °F 83% 30.09 in 10.0 mi NE 3.5 mph - N/A   Overcast
5:53 AM 77.0 °F - 72.0 °F 84% 30.09 in 10.0 mi ENE 4.6 mph - N/A   Overcast
6:12 AM 77.0 °F - 71.6 °F 83% 30.09 in 10.0 mi ENE 4.6 mph - N/A   Overcast
6:53 AM 77.0 °F - 72.0 °F 84% 30.09 in 10.0 mi East 4.6 mph - N/A   Overcast
7:53 AM 77.0 °F - 72.0 °F 84% 30.10 in 10.0 mi ENE 6.9 mph - N/A   Overcast
8:53 AM 80.1 °F 84.5 °F 73.9 °F 81% 30.11 in 10.0 mi East 6.9 mph - N/A   Overcast
9:53 AM 82.0 °F 87.9 °F 73.9 °F 76% 30.11 in 10.0 mi ESE 10.4 mph - N/A   Mostly Cloudy
10:34 AM 82.4 °F 88.2 °F 73.4 °F 74% 30.10 in 10.0 mi East 8.1 mph - N/A   Mostly Cloudy
10:53 AM 84.0 °F 90.2 °F 73.0 °F 69% 30.10 in 10.0 mi ESE 6.9 mph - N/A   Mostly Cloudy
11:28 AM 84.2 °F 89.6 °F 71.6 °F 66% 30.10 in 10.0 mi East 8.1 mph - N/A   Overcast
11:53 AM 84.9 °F 93.3 °F 75.0 °F 72% 30.10 in 10.0 mi ENE 9.2 mph - N/A   Overcast
12:53 PM 86.0 °F 93.0 °F 73.0 °F 65% 30.09 in 10.0 mi East 8.1 mph - N/A   Scattered Clouds
1:53 PM 87.1 °F 95.4 °F 73.9 °F 65% 30.08 in 10.0 mi East 13.8 mph 18.4 mph N/A   Mostly Cloudy
2:53 PM 84.0 °F 90.2 °F 73.0 °F 69% 30.07 in 10.0 mi East 12.7 mph - N/A   Mostly Cloudy
3:53 PM 81.0 °F 86.2 °F 73.9 °F 79% 30.07 in 10.0 mi SE 4.6 mph - 0.00 in Rain Light Rain
4:09 PM 78.8 °F - 75.2 °F 89% 30.08 in 8.0 mi SSE 5.8 mph - 0.00 in Rain Light Rain
4:17 PM 78.8 °F - 73.4 °F 83% 30.07 in 1.8 mi South 11.5 mph 21.9 mph 0.09 in Rain Heavy Rain
4:29 PM 77.0 °F - 75.2 °F 94% 30.07 in 0.5 mi East 6.9 mph - 0.47 in Fog , Rain Heavy Rain
4:45 PM 78.8 °F - 77.0 °F 94% 30.06 in 2.0 mi East 9.2 mph - 0.68 in Rain Rain
4:48 PM 80.6 °F 87.1 °F 77.0 °F 89% 30.06 in 4.0 mi East 9.2 mph - 0.69 in Rain Light Rain
4:53 PM 80.1 °F 86.4 °F 78.1 °F 94% 30.06 in 7.0 mi East 11.5 mph - 0.69 in Rain Light Rain
5:53 PM 81.0 °F 86.7 °F 75.0 °F 82% 30.06 in 10.0 mi East 11.5 mph - 0.00 in   Mostly Cloudy
6:53 PM 81.0 °F 86.2 °F 73.9 °F 79% 30.05 in 10.0 mi ESE 11.5 mph - N/A   Mostly Cloudy
7:53 PM 80.1 °F 85.1 °F 75.0 °F 85% 30.06 in 10.0 mi ESE 6.9 mph - N/A   Overcast
8:53 PM 79.0 °F - 73.9 °F 84% 30.07 in 10.0 mi East 5.8 mph - N/A   Mostly Cloudy
9:53 PM 78.1 °F - 75.0 °F 90% 30.09 in 10.0 mi East 4.6 mph - N/A   Overcast
10:53 PM 78.1 °F - 75.0 °F 90% 30.09 in 10.0 mi East 6.9 mph - N/A   Mostly Cloudy
11:53 PM 78.1 °F - 75.9 °F 93% 30.10 in 10.0 mi SE 3.5 mph - N/A   Overcast